NOAA 16 DEB, 41493

Orbit data source: Space-Track

NOAA 16 DEB, 41493 is space debris in SSO originally from a launch on Thu, 21 Sep 2000 UTC launched from the Air Force Western Test Range (AFWTR). Debris objects in space refer to the collection of defunct objects orbiting the Earth. Examples of debris include non-operational satellites, rocket bodies, and fragments generated from explosions, collisions, or faulty payload assembly.

Loading next visibility...
Identifier
41493, 2000-055LR
Orbit
SSO
Country
Flag of USUS
Related business
Manufacturer
Unknown
Mission
Spacecraft
Bus & Motor
Unknown
Mass
Unknown
Launch date (UTC)
2000-09-21 (26 years ago)
Launch vehicle
Unknown
Launch site
Air Force Western Test Range (AFWTR)
Object type
Payload
Rocket body
Debris
Shape & HBR
Unknown shape, 0.1 m
Radar Cross Section
Small (<0.1 m²)

Expand to show TLE details & history
Last TLE update: 7 hours ago

TLE from 7 hours ago
0 NOAA 16 DEB
1 41493U 00055LR  26127.92927203  .00006160  00000-0  14796-2 0  9995
2 41493  98.9139 298.3878 0022661 226.7162 133.2143 14.53618738527377
Epoch: 2026-05-07T22:18Z
TLE epoch observation values (Epoch: 2026-05-07T22:18:09.103Z)
Latitude
0.00004°
Longitude
98.0815°
Altitude
727.833 km
Speed
7.485 km/s
True Right ascension
19h 53m 33s
True Declination
0° 00' 00"
Sunlit
Object was in daylight at epoch
Visualization orbit readout
Latitude
Unknown
Longitude
Unknown
Altitude
Unknown
Speed
Unknown
Apparent Right ascension
Unknown
Apparent Declination
Unknown
Sunlit
N/A
Visualization observer readout
Local Sidereal Time
13:06:34
Azimuth
Unknown
Elevation
Unknown
Doppler factor
Unknown
Orbital elements
Apogee altitude
727.042 km
Perigee altitude
694.913 km
Semi-major axis
7,089.115 km
Eccentricity
0.00227
Inclination
98.9139°
RAAN
298.3878°
Arg. of periapsis
226.7162°
True anomaly
133.40318°
Mean anomaly
133.2143°
Eccentric anomaly
133.30878°
Mean motion
3.63626 °/min
Orbital period
99 mins
BSTAR
0.0014796
Loading maneuver chart data...
Computing Atmospheric mass density...

Documentation

Showing up to 5 results
|